Hourly Data Report for August 07, 2004

All times are specified in Local Standard Time (LST). Add 1 hour to adjust for Daylight Saving Time where and when it is observed.

TORONTO CITY
ONTARIO

43°40'00.000" N
79°24'00.000" W
112.50 m
6158355
71508
XTO

Download Data

Hourly Data (August 2004)
Hourly Data Report for August 7, 2004
TIME Temp Definition
°C
Dew Point Definition
°C
Rel Hum Definition
%
Wind Dir Definition
10's deg

Wind Spd Definition
km/h
Visibility Definition
km
Stn Press Definition
kPa
Hmdx Definition


Wind Chill Definition


Weather Definition


00:00 15.0 9.7 71 LegendMM LegendMM LegendMM 100.27     LegendNANA
01:00 15.0 9.2 68 LegendMM LegendMM LegendMM 100.27     LegendNANA
02:00 14.9 9.3 69 LegendMM LegendMM LegendMM 100.24     LegendNANA
03:00 14.5 9.9 74 LegendMM LegendMM LegendMM 100.22     LegendNANA
04:00 14.6 10.3 75 LegendMM LegendMM LegendMM 100.24     LegendNANA
05:00 14.6 10.2 75 LegendMM LegendMM LegendMM 100.26     LegendNANA
06:00 14.2 10.1 76 LegendMM LegendMM LegendMM 100.29     LegendNANA
07:00 14.9 10.6 75 LegendMM LegendMM LegendMM 100.32     LegendNANA
08:00 15.5 10.3 71 LegendMM LegendMM LegendMM 100.33     LegendNANA
09:00 16.5 10.4 67 LegendMM LegendMM LegendMM 100.31     LegendNANA
10:00 17.6 10.3 62 LegendMM LegendMM LegendMM 100.33     LegendNANA
11:00 19.7 10.9 57 LegendMM LegendMM LegendMM 100.30     LegendNANA
12:00 19.4 11.1 59 LegendMM LegendMM LegendMM 100.26     LegendNANA
13:00 19.0 10.9 59 LegendMM LegendMM LegendMM 100.26     LegendNANA
14:00 18.0 11.4 65 LegendMM LegendMM LegendMM 100.23     LegendNANA
15:00 19.2 12.4 65 LegendMM LegendMM LegendMM 100.19     LegendNANA
16:00 19.6 12.7 64 LegendMM LegendMM LegendMM 100.16     LegendNANA
17:00 19.5 13.1 66 LegendMM LegendMM LegendMM 100.14     LegendNANA
18:00 19.9 14.2 70 LegendMM LegendMM LegendMM 100.10     LegendNANA
19:00 19.4 14.7 74 LegendMM LegendMM LegendMM 100.11     LegendNANA
20:00 19.6 15.6 78 LegendMM LegendMM LegendMM 100.15     LegendNANA
21:00 18.5 15.2 81 LegendMM LegendMM LegendMM 100.19     LegendNANA
22:00 17.0 14.7 86 LegendMM LegendMM LegendMM 100.22     LegendNANA
23:00 17.7 12.6 72 LegendMM LegendMM LegendMM 100.22     LegendNANA

Notes on Data Quality.

Legend

  • E = Estimated
  • M = Missing
  • NA = Not Available
Date modified: